This is the latest recevied weather packets stored in our database for station/object W5CRT. If no packets are shown the sender has not sent any weather packets the latest 10 day(s).
| Time | Temp. | Humidity | Pressure | Rain* | Wind** | Luminosity | Snow |
|---|---|---|---|---|---|---|---|
| 1777513041 | 16.67° C | 83% | 1011.4 hPa | 0 mm | - | 0 W/m² | - |
| 1777512738 | 16.67° C | 83% | 1011.4 hPa | 0 mm | - | 0 W/m² | - |
| 1777512435 | 16.67° C | 83% | 1011.5 hPa | 0 mm | - | 0 W/m² | - |
| 1777512132 | 16.67° C | 83% | 1011.3 hPa | 0 mm | - | 0 W/m² | - |
| 1777511830 | 16.67° C | 83% | 1011.2 hPa | 0 mm | - | 0 W/m² | - |
| 1777511526 | 16.67° C | 84% | 1010.8 hPa | 0 mm | - | 1 W/m² | - |
| 1777509401 | 17.22° C | 81% | 1011.2 hPa | 0 mm | - | 26 W/m² | - |
| 1777509099 | 17.22° C | 81% | 1011 hPa | 0 mm | - | 24 W/m² | - |
| 1777508492 | 17.22° C | 82% | 1010.8 hPa | 0 mm | - | 32 W/m² | - |
| 1777508190 | 17.22° C | 83% | 1010.9 hPa | 0 mm | - | 40 W/m² | - |
| 1777507886 | 17.22° C | 83% | 1011.6 hPa | 0 mm | - | 18 W/m² | - |
| 1777506978 | 16.67° C | 84% | 1010.6 hPa | 0 mm | - | 15 W/m² | - |
| 1777505460 | 16.67° C | 83% | 1011 hPa | 0 mm | - | 46 W/m² | - |
| 1777503032 | 16.67° C | 82% | 1011.6 hPa | 0 mm | - | 43 W/m² | - |
| 1777502426 | 16.67° C | 83% | 1011.4 hPa | 0 mm | - | 66 W/m² | - |
| 1777502123 | 16.67° C | 83% | 1011.7 hPa | 0 mm | - | 75 W/m² | - |
| 1777501821 | 16.67° C | 83% | 1012.1 hPa | 0 mm | - | 39 W/m² | - |
| 1777495452 | 17.22° C | 84% | 1011.5 hPa | 0 mm | - | 307 W/m² | - |
| 1777494845 | 17.22° C | 84% | 1011.3 hPa | 0 mm | - | 271 W/m² | - |
| 1777494240 | 17.22° C | 84% | 1011.9 hPa | 0 mm | - | 350 W/m² | - |
| 1777493936 | 17.22° C | 86% | 1012.3 hPa | 0 mm | - | 241 W/m² | - |
| 1777493635 | 16.67° C | 86% | 1012.9 hPa | 0 mm | - | 221 W/m² | - |
| 1777493332 | 16.67° C | 86% | 1012.7 hPa | 0 mm | - | 147 W/m² | - |
| 1777493028 | 16.67° C | 88% | 1014 hPa | 0 mm | - | 27 W/m² | - |
| 1777492725 | 17.22° C | 87% | 1013.4 hPa | 0 mm | - | 17 W/m² | - |
* Rain latest hour (hover to see other rain measurements)
** Current wind speed in m/s (hover to see current wind gust speed)